Find Kosmos-2194

NORAD ID: 21983 Int'l Des: 1992-030 Owner: VVSR Country: RU operational
LEOCIRCULAR

Live-Position

3D-Globus wird geladen...

Über Kosmos-2194

Beschreibung wird geladen...

Nächste Überflüge

Passes for default location (London). Set your location on the main map for personalized predictions.

Höhenverlauf

Loading altitude history...

Zweizeiliger Elementsatz

1 21983U 92030H 26122.03409639 -.00000008 00000-0 54215-4 0 9994
2 21983 74.0060 35.6539 0016825 341.9755 29.4449 12.48475075545558
Epoch: 2. Mai 2026 • Age: 9 hours

Aktueller Status

Höhe 1487.2 km
Geschwindigkeit 7.12 km/s
Subsatellitenpunkt -65.25°S, 13.34°W
Startdatum 3. Juni 1992
Alter 33.9 years
Typ other

Technische Details

Klassifizierung Payload
Masse 60.00 kg
Trockenmasse 60.00 kg
Gesamtmasse 60.00 kg
Länge 0.80 m
Durchmesser 0.80 m
Spannweite 0.80 m
Form Poly
Hersteller NPOPM
Bus-Typ Strela-1 11F625
Phasenstatus In Orbit
Besitzer/Staat VVSR/RU

Most Searched